This demonstration page uses our WeatherBlox Daily Observations layout. Learn more.

Left ArrowRight Arrow

Hourly Observations for May 13, 2018

Temp ( °F °C ) Dew Point ( °F °C ) Humidity (%) Winds ( mph kmh ) Pressure ( in mb ) Visibility ( mi km ) Precip ( " mm )
12:51 am 00:51 Clear 70 21.1 28 -2.2 21 21 WNW 5 7 29.78 1008 10 16 0.00 0.00
1:51 am 01:51 Clear 66 18.9 27 -2.8 23 23 NW 5 7 29.77 1008 10 16 0.00 0.00
2:51 am 02:51 Clear 63 17.2 26 -3.3 25 25 E 7 11 29.78 1008 10 16 0.00 0.00
3:51 am 03:51 Clear 60 15.6 26 -3.3 27 27 Calm 29.80 1009 10 16 0.00 0.00
4:51 am 04:51 Clear 60 15.6 26 -3.3 27 27 Calm 29.80 1009 10 16 0.00 0.00
5:51 am 05:51 Sunny 60 15.6 26 -3.3 27 27 N 5 7 29.83 1010 10 16 0.00 0.00
6:51 am 06:51 Sunny 65 18.3 26 -3.3 23 23 Calm 29.84 1010 10 16 0.00 0.00
7:51 am 07:51 Sunny 69 20.6 27 -2.8 21 21 SE 8 13 29.85 1011 10 16 0.00 0.00
8:51 am 08:51 Sunny 73 22.8 26 -3.3 17 17 SSE 6 9 29.85 1011 10 16 0.00 0.00
9:51 am 09:51 Sunny 79 26.1 25 -3.9 14 14 S 10 17 29.83 1010 10 16 0.00 0.00
10:51 am 10:51 Sunny 82 27.8 18 -7.8 9 9 VRB 5 7 29.82 1010 10 16 0.00 0.00
11:51 am 11:51 Sunny 84 28.9 17 -8.3 8 8 VRB 3 6 29.80 1009 10 16 0.00 0.00
12:41 pm 12:41 Sunny 86 30 18 -7.8 8 8 W 7 11 29.71 1006 10 16 0.00 0.00
12:51 pm 12:51 Sunny 86 30 17 -8.3 8 8 S 6 9 29.78 1008 10 16 0.00 0.00
1:51 pm 13:51 Sunny 90 32.2 16 -8.9 6 6 WNW 17 28 29.75 1008 10 16 0.00 0.00
2:51 pm 14:51 Sunny 90 32.2 14 -10 6 6 W 12 19 29.74 1007 10 16 0.00 0.00
3:51 pm 15:51 Sunny 90 32.2 14 -10 6 6 WSW 20 31 29.73 1007 10 16 0.00 0.00
4:51 pm 16:51 Sunny 87 30.6 20 -6.7 8 8 W 12 19 29.73 1007 10 16 0.00 0.00
5:51 pm 17:51 Sunny 85 29.4 25 -3.9 11 11 W 15 24 29.74 1007 10 16 0.00 0.00
6:51 pm 18:51 Sunny 83 28.3 24 -4.4 11 11 W 16 26 29.75 1007 10 16 0.00 0.00
7:51 pm 19:51 Clear 81 27.2 28 -2.2 14 14 WNW 17 28 29.76 1008 10 16 0.00 0.00
8:51 pm 20:51 Clear 79 26.1 31 -0.6 17 17 WNW 10 17 29.78 1008 10 16 0.00 0.00
9:51 pm 21:51 Clear 78 25.6 31 -0.6 18 18 undefined N/A 29.78 1008 10 16 0.00 0.00
10:51 pm 22:51 Clear 76 24.4 21 -6.1 13 13 NW 10 17 29.78 1009 10 16 0.00 0.00
11:51 pm 23:51 Clear 74 23.3 20 -6.7 13 13 NW 7 11 29.79 1009 10 16 0.00 0.00

Powered by AerisWeather